PRIVATE WETTERSTATION BILLIGHEIM-ALLFELD                       ZURCK
Wetterdaten: Montag, 28.07.2014
Datum Zeit Temp. A. Temp. A. min Temp. A. max Feuchte A. Luftdruck Regen Wind Richtung Richtung Sonnenschein ET Solar Taupunkt Windchill Windben Empfang
28.07.2014 00:00 19,7 C 19,7 C 19,9 C 80 % 1013,4 hPa 0,0 l/m 0,0 km/h (0 Bft) N 0 0 min 0,051 mm 0 W/m 16,1 C 19,7 C 0,0 km/h (0 Bft) 98 %
28.07.2014 00:10 19,6 C 19,6 C 19,7 C 81 % 1013,2 hPa 0,0 l/m 0,0 km/h (0 Bft) O-SO 112 0 min 0,000 mm 0 W/m 16,2 C 19,6 C 1,6 km/h (1 Bft) 98 %
28.07.2014 00:20 19,4 C 19,4 C 19,6 C 82 % 1013,2 hPa 0,0 l/m 0,0 km/h (0 Bft) O-SO 112 0 min 0,000 mm 0 W/m 16,2 C 19,4 C 1,6 km/h (1 Bft) 97 %
28.07.2014 00:30 19,3 C 19,3 C 19,4 C 82 % 1013,2 hPa 0,0 l/m 1,6 km/h (1 Bft) S-SO 157 0 min 0,000 mm 0 W/m 16,1 C 19,3 C 9,7 km/h (2 Bft) 98 %
28.07.2014 00:40 19,3 C 19,2 C 19,3 C 81 % 1013,2 hPa 0,0 l/m 0,0 km/h (0 Bft) S-SO 157 0 min 0,000 mm 0 W/m 16,0 C 19,3 C 6,4 km/h (2 Bft) 97 %
28.07.2014 00:50 19,2 C 19,2 C 19,3 C 82 % 1013,1 hPa 0,0 l/m 0,0 km/h (0 Bft) S 180 0 min 0,000 mm 0 W/m 16,0 C 19,2 C 1,6 km/h (1 Bft) 97 %
28.07.2014 01:00 19,1 C 19,1 C 19,2 C 82 % 1013,0 hPa 0,0 l/m 0,0 km/h (0 Bft) S 180 0 min 0,025 mm 0 W/m 16,0 C 19,1 C 1,6 km/h (1 Bft) 97 %
28.07.2014 01:10 19,1 C 19,1 C 19,1 C 84 % 1013,0 hPa 0,0 l/m 0,0 km/h (0 Bft) S 180 0 min 0,000 mm 0 W/m 16,3 C 19,1 C 1,6 km/h (1 Bft) 98 %
28.07.2014 01:20 18,9 C 18,9 C 19,1 C 83 % 1012,9 hPa 0,0 l/m 0,0 km/h (0 Bft) S 180 0 min 0,000 mm 0 W/m 15,9 C 18,9 C 3,2 km/h (1 Bft) 97 %
28.07.2014 01:30 18,9 C 18,9 C 18,9 C 84 % 1012,9 hPa 0,0 l/m 0,0 km/h (0 Bft) S 180 0 min 0,000 mm 0 W/m 16,1 C 18,9 C 1,6 km/h (1 Bft) 97 %
28.07.2014 01:40 18,8 C 18,8 C 18,9 C 84 % 1012,7 hPa 0,0 l/m 0,0 km/h (0 Bft) N 0 0 min 0,000 mm 0 W/m 16,0 C 18,8 C 0,0 km/h (0 Bft) 98 %
28.07.2014 01:50 18,8 C 18,8 C 18,8 C 84 % 1012,6 hPa 0,0 l/m 0,0 km/h (0 Bft) S 180 0 min 0,000 mm 0 W/m 16,0 C 18,8 C 1,6 km/h (1 Bft) 97 %
28.07.2014 02:00 18,7 C 18,7 C 18,8 C 85 % 1012,6 hPa 0,0 l/m 0,0 km/h (0 Bft) W-NW 292 0 min 0,025 mm 0 W/m 16,1 C 18,7 C 1,6 km/h (1 Bft) 98 %
28.07.2014 02:10 18,6 C 18,6 C 18,7 C 85 % 1012,4 hPa 0,0 l/m 0,0 km/h (0 Bft) N 0 0 min 0,000 mm 0 W/m 16,0 C 18,6 C 0,0 km/h (0 Bft) 97 %
28.07.2014 02:20 18,6 C 18,6 C 18,6 C 85 % 1012,4 hPa 0,0 l/m 0,0 km/h (0 Bft) W-NW 292 0 min 0,000 mm 0 W/m 16,0 C 18,6 C 1,6 km/h (1 Bft) 97 %
28.07.2014 02:30 18,5 C 18,5 C 18,6 C 86 % 1012,3 hPa 0,0 l/m 0,0 km/h (0 Bft) N 0 0 min 0,000 mm 0 W/m 16,1 C 18,5 C 0,0 km/h (0 Bft) 98 %
28.07.2014 02:40 18,4 C 18,4 C 18,5 C 86 % 1012,3 hPa 0,0 l/m 0,0 km/h (0 Bft) N 0 0 min 0,000 mm 0 W/m 16,0 C 18,4 C 0,0 km/h (0 Bft) 97 %
28.07.2014 02:50 18,4 C 18,4 C 18,4 C 86 % 1012,2 hPa 0,0 l/m 0,0 km/h (0 Bft) N 0 0 min 0,000 mm 0 W/m 16,0 C 18,4 C 0,0 km/h (0 Bft) 98 %
28.07.2014 03:00 18,3 C 18,3 C 18,4 C 86 % 1012,2 hPa 0,0 l/m 0,0 km/h (0 Bft) N 0 0 min 0,025 mm 0 W/m 15,9 C 18,3 C 0,0 km/h (0 Bft) 97 %
28.07.2014 03:10 18,3 C 18,2 C 18,3 C 86 % 1012,1 hPa 0,0 l/m 0,0 km/h (0 Bft) N 0 0 min 0,000 mm 0 W/m 15,9 C 18,3 C 0,0 km/h (0 Bft) 97 %
28.07.2014 03:20 18,2 C 18,1 C 18,3 C 86 % 1011,9 hPa 0,0 l/m 0,0 km/h (0 Bft) N 0 0 min 0,000 mm 0 W/m 15,8 C 18,2 C 0,0 km/h (0 Bft) 97 %
28.07.2014 03:30 18,1 C 18,1 C 18,2 C 86 % 1011,9 hPa 0,0 l/m 0,0 km/h (0 Bft) W-NW 292 0 min 0,000 mm 0 W/m 15,7 C 18,1 C 1,6 km/h (1 Bft) 96 %
28.07.2014 03:40 17,9 C 17,9 C 18,1 C 86 % 1011,8 hPa 0,0 l/m 0,0 km/h (0 Bft) N 0 0 min 0,000 mm 0 W/m 15,5 C 17,9 C 0,0 km/h (0 Bft) 98 %
28.07.2014 03:50 17,8 C 17,8 C 17,9 C 86 % 1011,7 hPa 0,0 l/m 0,0 km/h (0 Bft) N 0 0 min 0,000 mm 0 W/m 15,4 C 17,8 C 0,0 km/h (0 Bft) 97 %
28.07.2014 04:00 17,8 C 17,8 C 17,8 C 86 % 1011,7 hPa 0,0 l/m 0,0 km/h (0 Bft) W-NW 292 0 min 0,000 mm 0 W/m 15,4 C 17,8 C 1,6 km/h (1 Bft) 98 %
28.07.2014 04:10 17,7 C 17,7 C 17,8 C 86 % 1011,6 hPa 0,0 l/m 0,0 km/h (0 Bft) W-NW 292 0 min 0,000 mm 0 W/m 15,3 C 17,7 C 1,6 km/h (1 Bft) 97 %
28.07.2014 04:20 17,6 C 17,6 C 17,7 C 87 % 1011,6 hPa 0,0 l/m 0,0 km/h (0 Bft) N 0 0 min 0,000 mm 0 W/m 15,4 C 17,6 C 0,0 km/h (0 Bft) 98 %
28.07.2014 04:30 17,4 C 17,4 C 17,6 C 86 % 1011,5 hPa 0,0 l/m 0,0 km/h (0 Bft) N 0 0 min 0,000 mm 0 W/m 15,0 C 17,4 C 0,0 km/h (0 Bft) 97 %
28.07.2014 04:40 17,3 C 17,3 C 17,4 C 87 % 1011,4 hPa 0,0 l/m 0,0 km/h (0 Bft) N 0 0 min 0,000 mm 0 W/m 15,1 C 17,3 C 0,0 km/h (0 Bft) 97 %
28.07.2014 04:50 17,1 C 17,1 C 17,3 C 87 % 1011,4 hPa 0,0 l/m 0,0 km/h (0 Bft) W-NW 292 0 min 0,000 mm 0 W/m 14,9 C 17,1 C 1,6 km/h (1 Bft) 98 %
28.07.2014 05:00 16,9 C 16,9 C 17,1 C 87 % 1011,4 hPa 0,0 l/m 0,0 km/h (0 Bft) N 0 0 min 0,000 mm 0 W/m 14,7 C 16,9 C 0,0 km/h (0 Bft) 97 %
28.07.2014 05:10 16,8 C 16,8 C 16,9 C 87 % 1011,3 hPa 0,0 l/m 0,0 km/h (0 Bft) N 0 0 min 0,000 mm 0 W/m 14,6 C 16,8 C 0,0 km/h (0 Bft) 98 %
28.07.2014 05:20 16,6 C 16,6 C 16,8 C 87 % 1011,4 hPa 0,0 l/m 0,0 km/h (0 Bft) N 0 0 min 0,000 mm 0 W/m 14,4 C 16,6 C 0,0 km/h (0 Bft) 97 %
28.07.2014 05:30 16,4 C 16,4 C 16,6 C 87 % 1011,4 hPa 0,0 l/m 0,0 km/h (0 Bft) N 0 0 min 0,000 mm 0 W/m 14,2 C 16,4 C 0,0 km/h (0 Bft) 98 %
28.07.2014 05:40 16,3 C 16,3 C 16,4 C 87 % 1011,5 hPa 0,0 l/m 0,0 km/h (0 Bft) N 0 0 min 0,000 mm 0 W/m 14,1 C 16,3 C 0,0 km/h (0 Bft) 96 %
28.07.2014 05:50 16,2 C 16,2 C 16,3 C 87 % 1011,7 hPa 0,0 l/m 0,0 km/h (0 Bft) N 0 0 min 0,000 mm 0 W/m 14,0 C 16,2 C 0,0 km/h (0 Bft) 97 %
28.07.2014 06:00 16,0 C 16,0 C 16,2 C 87 % 1011,7 hPa 0,0 l/m 0,0 km/h (0 Bft) N 0 0 min 0,000 mm 0 W/m 13,8 C 16,0 C 0,0 km/h (0 Bft) 98 %
28.07.2014 06:10 15,9 C 15,9 C 16,0 C 87 % 1011,6 hPa 0,0 l/m 0,0 km/h (0 Bft) N 0 0 min 0,000 mm 7 W/m 13,7 C 15,9 C 0,0 km/h (0 Bft) 97 %
28.07.2014 06:20 15,9 C 15,9 C 15,9 C 87 % 1011,6 hPa 0,0 l/m 0,0 km/h (0 Bft) N 0 0 min 0,000 mm 11 W/m 13,7 C 15,9 C 0,0 km/h (0 Bft) 98 %
28.07.2014 06:30 15,8 C 15,8 C 15,9 C 87 % 1011,6 hPa 0,0 l/m 0,0 km/h (0 Bft) N 0 0 min 0,000 mm 16 W/m 13,6 C 15,8 C 0,0 km/h (0 Bft) 97 %
28.07.2014 06:40 15,8 C 15,8 C 15,8 C 87 % 1011,5 hPa 0,0 l/m 0,0 km/h (0 Bft) N 0 0 min 0,000 mm 19 W/m 13,6 C 15,8 C 0,0 km/h (0 Bft) 98 %
28.07.2014 06:50 15,8 C 15,8 C 15,8 C 87 % 1011,6 hPa 0,0 l/m 0,0 km/h (0 Bft) N 0 0 min 0,000 mm 23 W/m 13,6 C 15,8 C 0,0 km/h (0 Bft) 97 %
28.07.2014 07:00 15,9 C 15,8 C 15,9 C 87 % 1011,5 hPa 0,0 l/m 0,0 km/h (0 Bft) N 0 0 min 0,000 mm 30 W/m 13,7 C 15,9 C 0,0 km/h (0 Bft) 97 %
28.07.2014 07:10 15,9 C 15,8 C 15,9 C 87 % 1011,6 hPa 0,0 l/m 0,0 km/h (0 Bft) N 0 0 min 0,000 mm 30 W/m 13,7 C 15,9 C 0,0 km/h (0 Bft) 97 %
28.07.2014 07:20 15,9 C 15,9 C 15,9 C 87 % 1011,5 hPa 0,0 l/m 0,0 km/h (0 Bft) N 0 0 min 0,000 mm 39 W/m 13,7 C 15,9 C 0,0 km/h (0 Bft) 97 %
28.07.2014 07:30 16,0 C 15,9 C 16,1 C 87 % 1011,4 hPa 0,0 l/m 0,0 km/h (0 Bft) N 0 0 min 0,000 mm 56 W/m 13,8 C 16,0 C 0,0 km/h (0 Bft) 98 %
28.07.2014 07:40 16,3 C 16,1 C 16,3 C 87 % 1011,5 hPa 0,0 l/m 0,0 km/h (0 Bft) W-NW 292 0 min 0,000 mm 107 W/m 14,1 C 16,3 C 1,6 km/h (1 Bft) 96 %
28.07.2014 07:50 16,6 C 16,3 C 16,6 C 87 % 1011,5 hPa 0,0 l/m 0,0 km/h (0 Bft) W-NW 292 0 min 0,000 mm 148 W/m 14,4 C 16,6 C 1,6 km/h (1 Bft) 98 %
28.07.2014 08:00 17,0 C 16,6 C 17,0 C 87 % 1011,4 hPa 0,0 l/m 0,0 km/h (0 Bft) N 0 10 min 0,051 mm 167 W/m 14,8 C 17,0 C 0,0 km/h (0 Bft) 97 %
28.07.2014 08:10 17,4 C 17,0 C 17,4 C 87 % 1011,6 hPa 0,0 l/m 0,0 km/h (0 Bft) W-NW 292 10 min 0,000 mm 174 W/m 15,2 C 17,4 C 1,6 km/h (1 Bft) 97 %
28.07.2014 08:20 17,9 C 17,4 C 17,9 C 87 % 1011,4 hPa 0,0 l/m 0,0 km/h (0 Bft) W-NW 292 10 min 0,000 mm 207 W/m 15,7 C 17,9 C 1,6 km/h (1 Bft) 98 %
28.07.2014 08:30 18,3 C 17,9 C 18,3 C 87 % 1011,4 hPa 0,0 l/m 0,0 km/h (0 Bft) W-NW 292 10 min 0,000 mm 218 W/m 16,1 C 18,3 C 1,6 km/h (1 Bft) 97 %
28.07.2014 08:40 18,9 C 18,4 C 18,9 C 87 % 1011,3 hPa 0,0 l/m 0,0 km/h (0 Bft) W-NW 292 10 min 0,000 mm 223 W/m 16,7 C 18,9 C 1,6 km/h (1 Bft) 98 %
28.07.2014 08:50 19,4 C 18,9 C 19,4 C 87 % 1011,3 hPa 0,0 l/m 0,0 km/h (0 Bft) W-NW 292 10 min 0,000 mm 244 W/m 17,2 C 19,4 C 3,2 km/h (1 Bft) 97 %
28.07.2014 09:00 20,0 C 19,4 C 20,0 C 86 % 1011,2 hPa 0,0 l/m 0,0 km/h (0 Bft) W-NW 292 10 min 0,127 mm 262 W/m 17,6 C 20,0 C 1,6 km/h (1 Bft) 98 %
28.07.2014 09:10 20,4 C 20,0 C 20,4 C 84 % 1011,0 hPa 0,0 l/m 0,0 km/h (0 Bft) W-NW 292 10 min 0,000 mm 283 W/m 17,6 C 20,4 C 1,6 km/h (1 Bft) 97 %
28.07.2014 09:20 20,7 C 20,4 C 20,7 C 83 % 1011,0 hPa 0,0 l/m 0,0 km/h (0 Bft) W-NW 292 10 min 0,000 mm 279 W/m 17,7 C 20,7 C 1,6 km/h (1 Bft) 98 %
28.07.2014 09:30 21,1 C 20,7 C 21,1 C 82 % 1010,9 hPa 0,0 l/m 0,0 km/h (0 Bft) SW 225 10 min 0,000 mm 362 W/m 17,9 C 21,1 C 4,8 km/h (1 Bft) 98 %
28.07.2014 09:40 21,2 C 21,1 C 21,2 C 80 % 1010,9 hPa 0,0 l/m 0,0 km/h (0 Bft) SW 225 10 min 0,000 mm 329 W/m 17,6 C 21,2 C 1,6 km/h (1 Bft) 97 %
28.07.2014 09:50 21,6 C 21,2 C 21,6 C 80 % 1010,8 hPa 0,0 l/m 0,0 km/h (0 Bft) SW 225 10 min 0,000 mm 348 W/m 18,0 C 21,6 C 3,2 km/h (1 Bft) 97 %
28.07.2014 10:00 21,9 C 21,6 C 21,9 C 80 % 1010,8 hPa 0,0 l/m 0,0 km/h (0 Bft) SW 225 10 min 0,178 mm 345 W/m 18,3 C 21,9 C 4,8 km/h (1 Bft) 97 %
28.07.2014 10:10 22,3 C 21,9 C 22,3 C 78 % 1010,8 hPa 0,0 l/m 0,0 km/h (0 Bft) SW 225 10 min 0,000 mm 738 W/m 18,3 C 22,3 C 4,8 km/h (1 Bft) 97 %
28.07.2014 10:20 22,8 C 22,3 C 22,8 C 78 % 1010,6 hPa 0,0 l/m 0,0 km/h (0 Bft) S-SW 202 10 min 0,000 mm 701 W/m 18,8 C 22,8 C 4,8 km/h (1 Bft) 98 %
28.07.2014 10:30 23,4 C 22,8 C 23,4 C 74 % 1010,4 hPa 0,0 l/m 0,0 km/h (0 Bft) S-SW 202 10 min 0,000 mm 708 W/m 18,5 C 23,4 C 6,4 km/h (2 Bft) 97 %
28.07.2014 10:40 23,9 C 23,4 C 23,9 C 73 % 1010,3 hPa 0,0 l/m 0,0 km/h (0 Bft) S 180 10 min 0,000 mm 647 W/m 18,8 C 23,9 C 4,8 km/h (1 Bft) 98 %
28.07.2014 10:50 24,3 C 23,8 C 24,3 C 71 % 1010,2 hPa 0,0 l/m 0,0 km/h (0 Bft) S 180 10 min 0,000 mm 659 W/m 18,7 C 24,3 C 4,8 km/h (1 Bft) 97 %
28.07.2014 11:00 24,7 C 24,3 C 24,7 C 72 % 1010,1 hPa 0,0 l/m 1,6 km/h (1 Bft) S-SW 202 10 min 0,356 mm 689 W/m 19,3 C 24,7 C 6,4 km/h (2 Bft) 98 %
28.07.2014 11:10 25,3 C 24,7 C 25,3 C 69 % 1010,0 hPa 0,0 l/m 0,0 km/h (0 Bft) SW 225 10 min 0,000 mm 708 W/m 19,2 C 25,3 C 4,8 km/h (1 Bft) 96 %
28.07.2014 11:20 25,7 C 25,3 C 25,7 C 65 % 1009,9 hPa 0,0 l/m 0,0 km/h (0 Bft) SO 135 10 min 0,000 mm 731 W/m 18,6 C 25,7 C 6,4 km/h (2 Bft) 98 %
28.07.2014 11:30 26,0 C 25,7 C 26,0 C 64 % 1009,9 hPa 0,0 l/m 0,0 km/h (0 Bft) N 360 10 min 0,000 mm 812 W/m 18,6 C 26,0 C 1,6 km/h (1 Bft) 98 %
28.07.2014 11:40 26,1 C 26,0 C 26,1 C 66 % 1009,9 hPa 0,0 l/m 1,6 km/h (1 Bft) O-SO 112 10 min 0,000 mm 863 W/m 19,2 C 26,1 C 9,7 km/h (2 Bft) 97 %
28.07.2014 11:50 26,1 C 26,1 C 26,2 C 63 % 1009,8 hPa 0,0 l/m 1,6 km/h (1 Bft) W-NW 292 10 min 0,000 mm 893 W/m 18,5 C 26,1 C 6,4 km/h (2 Bft) 98 %
28.07.2014 12:00 26,5 C 26,2 C 26,5 C 61 % 1009,7 hPa 0,0 l/m 1,6 km/h (1 Bft) NW 315 10 min 0,483 mm 923 W/m 18,4 C 26,5 C 6,4 km/h (2 Bft) 97 %
28.07.2014 12:10 26,7 C 26,5 C 26,7 C 61 % 1009,7 hPa 0,0 l/m 0,0 km/h (0 Bft) W 270 10 min 0,000 mm 954 W/m 18,5 C 26,7 C 6,4 km/h (2 Bft) 98 %
28.07.2014 12:20 26,6 C 26,6 C 26,7 C 59 % 1009,5 hPa 0,0 l/m 3,2 km/h (1 Bft) SO 135 10 min 0,000 mm 1141 W/m 17,9 C 26,6 C 9,7 km/h (2 Bft) 97 %
28.07.2014 12:30 26,6 C 26,5 C 26,6 C 61 % 1009,5 hPa 0,0 l/m 1,6 km/h (1 Bft) SO 135 10 min 0,000 mm 740 W/m 18,4 C 26,6 C 8,0 km/h (2 Bft) 98 %
28.07.2014 12:40 26,4 C 26,4 C 26,7 C 63 % 1009,3 hPa 0,0 l/m 1,6 km/h (1 Bft) SO 135 10 min 0,000 mm 436 W/m 18,8 C 26,4 C 9,7 km/h (2 Bft) 98 %
28.07.2014 12:50 26,4 C 26,3 C 26,4 C 61 % 1009,4 hPa 0,0 l/m 0,0 km/h (0 Bft) O 90 10 min 0,000 mm 1151 W/m 18,3 C 26,4 C 6,4 km/h (2 Bft) 98 %
28.07.2014 13:00 26,7 C 26,4 C 26,7 C 64 % 1009,3 hPa 0,0 l/m 0,0 km/h (0 Bft) SW 225 10 min 0,406 mm 526 W/m 19,3 C 26,7 C 6,4 km/h (2 Bft) 98 %
28.07.2014 13:10 27,3 C 26,7 C 27,3 C 60 % 1009,2 hPa 0,0 l/m 1,6 km/h (1 Bft) N-NW 337 10 min 0,000 mm 1099 W/m 18,8 C 27,3 C 8,0 km/h (2 Bft) 97 %
28.07.2014 13:20 27,3 C 27,3 C 27,4 C 57 % 1009,1 hPa 0,0 l/m 0,0 km/h (0 Bft) N 360 10 min 0,000 mm 373 W/m 18,0 C 27,3 C 4,8 km/h (1 Bft) 99 %
28.07.2014 13:30 27,2 C 27,2 C 27,3 C 60 % 1009,0 hPa 0,0 l/m 0,0 km/h (0 Bft) SO 135 10 min 0,000 mm 1076 W/m 18,7 C 27,2 C 1,6 km/h (1 Bft) 100 %
28.07.2014 13:40 27,6 C 27,2 C 27,6 C 56 % 1008,8 hPa 0,0 l/m 0,0 km/h (0 Bft) S-SO 157 10 min 0,000 mm 1060 W/m 18,0 C 27,6 C 1,6 km/h (1 Bft) 100 %
28.07.2014 13:50 27,4 C 27,4 C 27,6 C 59 % 1008,6 hPa 0,0 l/m 0,0 km/h (0 Bft) O 90 10 min 0,000 mm 580 W/m 18,7 C 27,4 C 1,6 km/h (1 Bft) 100 %
28.07.2014 14:00 27,5 C 27,3 C 27,5 C 54 % 1008,6 hPa 0,0 l/m 0,0 km/h (0 Bft) O 90 10 min 0,381 mm 902 W/m 17,3 C 27,5 C 6,4 km/h (2 Bft) 100 %
28.07.2014 14:10 27,8 C 27,5 C 27,8 C 54 % 1008,4 hPa 0,0 l/m 1,6 km/h (1 Bft) O-SO 112 10 min 0,000 mm 900 W/m 17,6 C 27,8 C 11,3 km/h (2 Bft) 100 %
28.07.2014 14:20 28,4 C 27,8 C 28,4 C 54 % 1008,2 hPa 0,0 l/m 1,6 km/h (1 Bft) N-NW 337 10 min 0,000 mm 856 W/m 18,2 C 28,4 C 8,0 km/h (2 Bft) 99 %
28.07.2014 14:30 28,4 C 28,3 C 28,4 C 52 % 1008,1 hPa 0,0 l/m 0,0 km/h (0 Bft) W 270 10 min 0,000 mm 858 W/m 17,6 C 28,4 C 6,4 km/h (2 Bft) 100 %
28.07.2014 14:40 28,3 C 28,3 C 28,4 C 55 % 1008,1 hPa 0,0 l/m 0,0 km/h (0 Bft) N-NW 337 10 min 0,000 mm 863 W/m 18,4 C 28,3 C 4,8 km/h (1 Bft) 99 %
28.07.2014 14:50 28,3 C 28,3 C 28,3 C 51 % 1008,0 hPa 0,0 l/m 0,0 km/h (0 Bft) O-SO 112 10 min 0,000 mm 795 W/m 17,2 C 28,3 C 6,4 km/h (2 Bft) 100 %
28.07.2014 15:00 28,1 C 28,1 C 28,3 C 52 % 1007,8 hPa 0,0 l/m 0,0 km/h (0 Bft) O-NO 67 10 min 0,457 mm 738 W/m 17,3 C 28,1 C 4,8 km/h (1 Bft) 100 %
28.07.2014 15:10 28,1 C 28,0 C 28,2 C 55 % 1007,7 hPa 0,0 l/m 0,0 km/h (0 Bft) O-SO 112 10 min 0,000 mm 550 W/m 18,2 C 28,1 C 4,8 km/h (1 Bft) 90 %
28.07.2014 15:20 28,1 C 28,1 C 28,2 C 56 % 1007,6 hPa 0,0 l/m 0,0 km/h (0 Bft) SO 135 10 min 0,000 mm 786 W/m 18,5 C 28,1 C 6,4 km/h (2 Bft) 100 %
28.07.2014 15:30 27,7 C 27,7 C 28,1 C 57 % 1007,5 hPa 0,0 l/m 0,0 km/h (0 Bft) N 360 10 min 0,000 mm 225 W/m 18,4 C 27,7 C 4,8 km/h (1 Bft) 100 %
28.07.2014 15:40 27,1 C 27,1 C 27,7 C 57 % 1007,5 hPa 0,0 l/m 0,0 km/h (0 Bft) O-SO 112 10 min 0,000 mm 287 W/m 17,8 C 27,1 C 4,8 km/h (1 Bft) 99 %
28.07.2014 15:50 27,0 C 27,0 C 27,1 C 53 % 1007,3 hPa 0,0 l/m 0,0 km/h (0 Bft) SO 135 10 min 0,000 mm 596 W/m 16,6 C 27,0 C 6,4 km/h (2 Bft) 100 %
28.07.2014 16:00 26,8 C 26,8 C 27,0 C 54 % 1007,4 hPa 0,0 l/m 0,0 km/h (0 Bft) O 90 10 min 0,203 mm 309 W/m 16,7 C 26,8 C 4,8 km/h (1 Bft) 100 %
28.07.2014 16:20 26,7 C 26,7 C 27,0 C 58 % 1007,2 hPa 0,0 l/m 0,1 km/h (0 Bft) O-SO 116 20 min 0,000 mm 155 W/m 17,7 C 26,7 C 4,8 km/h (1 Bft) 100 %
28.07.2014 16:30 26,5 C 26,5 C 26,7 C 60 % 1006,8 hPa 0,0 l/m 0,1 km/h (0 Bft) O-SO 116 10 min 0,000 mm 163 W/m 18,1 C 26,5 C 3,2 km/h (1 Bft) 100 %
28.07.2014 16:40 26,3 C 26,3 C 26,5 C 60 % 1006,8 hPa 0,0 l/m 0,0 km/h (0 Bft) O-SO 116 10 min 0,000 mm 181 W/m 17,9 C 26,3 C 1,6 km/h (1 Bft) 100 %
28.07.2014 16:50 26,2 C 26,2 C 26,3 C 57 % 1006,7 hPa 0,0 l/m 0,0 km/h (0 Bft) O-SO 116 10 min 0,000 mm 443 W/m 17,0 C 26,2 C 1,6 km/h (1 Bft) 100 %
28.07.2014 17:00 26,7 C 26,2 C 26,7 C 56 % 1006,6 hPa 0,0 l/m 0,2 km/h (0 Bft) SO 144 10 min 0,128 mm 517 W/m 17,2 C 26,7 C 3,2 km/h (1 Bft) 100 %
28.07.2014 17:10 27,1 C 26,7 C 27,1 C 54 % 1006,7 hPa 0,0 l/m 1,0 km/h (0 Bft) N-NW 333 10 min 0,000 mm 163 W/m 17,0 C 27,1 C 8,0 km/h (2 Bft) 100 %
28.07.2014 17:20 26,9 C 26,9 C 27,1 C 55 % 1006,7 hPa 0,0 l/m 0,0 km/h (0 Bft) N-NW 333 0 min 0,000 mm 69 W/m 17,1 C 26,9 C 0,0 km/h (0 Bft) 100 %
28.07.2014 17:30 26,4 C 26,4 C 26,9 C 58 % 1006,9 hPa 0,0 l/m 0,0 km/h (0 Bft) N-NW 328 0 min 0,000 mm 79 W/m 17,5 C 26,4 C 1,6 km/h (1 Bft) 100 %
28.07.2014 17:40 26,1 C 26,1 C 26,4 C 60 % 1006,7 hPa 0,0 l/m 0,0 km/h (0 Bft) N-NW 328 0 min 0,000 mm 60 W/m 17,7 C 26,1 C 1,6 km/h (1 Bft) 100 %
28.07.2014 17:50 25,9 C 25,9 C 26,1 C 58 % 1006,4 hPa 0,0 l/m 0,0 km/h (0 Bft) N-NW 328 0 min 0,000 mm 107 W/m 17,0 C 25,9 C 1,6 km/h (1 Bft) 100 %
28.07.2014 18:00 26,0 C 25,9 C 26,0 C 61 % 1006,3 hPa 0,0 l/m 0,5 km/h (0 Bft) NW 305 0 min 0,076 mm 102 W/m 17,9 C 26,0 C 6,4 km/h (2 Bft) 100 %
28.07.2014 18:10 26,6 C 26,0 C 26,6 C 59 % 1006,2 hPa 0,0 l/m 2,8 km/h (1 Bft) NW 323 0 min 0,000 mm 70 W/m 17,9 C 26,6 C 8,0 km/h (2 Bft) 100 %
28.07.2014 18:20 27,0 C 26,6 C 27,0 C 56 % 1006,1 hPa 0,0 l/m 5,2 km/h (1 Bft) W 261 0 min 0,000 mm 70 W/m 17,5 C 27,0 C 22,5 km/h (4 Bft) 100 %
28.07.2014 18:30 26,7 C 26,7 C 27,0 C 59 % 1006,1 hPa 0,0 l/m 8,3 km/h (2 Bft) W 275 0 min 0,000 mm 67 W/m 18,0 C 26,3 C 17,7 km/h (3 Bft) 100 %
28.07.2014 18:40 26,3 C 26,3 C 26,7 C 61 % 1006,2 hPa 0,0 l/m 4,1 km/h (1 Bft) N-NW 333 0 min 0,000 mm 70 W/m 18,2 C 26,3 C 14,5 km/h (3 Bft) 100 %
28.07.2014 18:50 25,9 C 25,9 C 26,3 C 61 % 1006,2 hPa 0,0 l/m 6,8 km/h (2 Bft) NW 306 0 min 0,000 mm 54 W/m 17,8 C 25,8 C 16,1 km/h (3 Bft) 100 %
28.07.2014 19:00 25,2 C 25,2 C 25,9 C 64 % 1006,2 hPa 0,0 l/m 7,2 km/h (2 Bft) W-NW 299 0 min 0,101 mm 56 W/m 17,9 C 25,0 C 16,1 km/h (3 Bft) 100 %
28.07.2014 19:10 24,7 C 24,7 C 25,2 C 67 % 1006,1 hPa 0,0 l/m 3,2 km/h (1 Bft) NW 306 0 min 0,000 mm 107 W/m 18,1 C 24,7 C 14,5 km/h (3 Bft) 100 %
28.07.2014 19:20 24,3 C 24,3 C 24,7 C 68 % 1006,0 hPa 0,0 l/m 1,3 km/h (1 Bft) N-NO 30 0 min 0,000 mm 65 W/m 18,0 C 24,3 C 12,9 km/h (3 Bft) 100 %
28.07.2014 19:30 24,1 C 24,1 C 24,3 C 70 % 1006,0 hPa 0,0 l/m 0,5 km/h (0 Bft) N-NW 334 0 min 0,000 mm 90 W/m 18,3 C 24,1 C 8,0 km/h (2 Bft) 100 %
28.07.2014 19:40 24,1 C 24,0 C 24,1 C 72 % 1006,0 hPa 0,0 l/m 0,6 km/h (0 Bft) NW 325 0 min 0,000 mm 141 W/m 18,7 C 24,1 C 8,0 km/h (2 Bft) 100 %
28.07.2014 19:50 24,2 C 24,1 C 24,2 C 72 % 1006,2 hPa 0,0 l/m 2,5 km/h (1 Bft) NW 318 0 min 0,000 mm 100 W/m 18,8 C 24,2 C 9,7 km/h (2 Bft) 100 %
28.07.2014 20:00 24,1 C 24,1 C 24,2 C 73 % 1006,3 hPa 0,0 l/m 0,2 km/h (0 Bft) N-NW 327 0 min 0,077 mm 33 W/m 18,9 C 24,1 C 3,2 km/h (1 Bft) 100 %
28.07.2014 20:10 23,8 C 23,8 C 24,1 C 76 % 1006,5 hPa 0,0 l/m 0,0 km/h (0 Bft) N-NW 328 0 min 0,000 mm 16 W/m 19,3 C 23,8 C 0,0 km/h (0 Bft) 100 %
28.07.2014 20:20 22,7 C 22,7 C 23,8 C 81 % 1007,0 hPa 0,4 l/m 1,6 km/h (1 Bft) O-SO 103 0 min 0,000 mm 7 W/m 19,3 C 22,7 C 8,0 km/h (2 Bft) 100 %
28.07.2014 20:30 22,0 C 22,0 C 22,7 C 84 % 1007,2 hPa 3,0 l/m 0,5 km/h (0 Bft) O-SO 116 0 min 0,000 mm 0 W/m 19,2 C 22,0 C 6,4 km/h (2 Bft) 100 %
28.07.2014 20:40 21,2 C 21,2 C 22,0 C 83 % 1006,6 hPa 5,0 l/m 2,4 km/h (1 Bft) W 267 0 min 0,000 mm 0 W/m 18,2 C 21,2 C 16,1 km/h (3 Bft) 100 %
28.07.2014 20:50 20,2 C 20,2 C 21,2 C 81 % 1006,5 hPa 0,6 l/m 3,8 km/h (1 Bft) W-NW 300 0 min 0,000 mm 0 W/m 16,8 C 20,2 C 16,1 km/h (3 Bft) 100 %
28.07.2014 21:00 19,7 C 19,7 C 20,2 C 85 % 1006,7 hPa 0,2 l/m 0,0 km/h (0 Bft) N-NO 30 0 min 0,000 mm 0 W/m 17,1 C 19,7 C 1,6 km/h (1 Bft) 100 %
28.07.2014 21:10 19,3 C 19,3 C 19,7 C 86 % 1007,5 hPa 4,8 l/m 1,6 km/h (1 Bft) O 90 0 min 0,000 mm 0 W/m 16,9 C 19,3 C 9,7 km/h (2 Bft) 100 %
28.07.2014 21:20 19,2 C 19,2 C 19,3 C 86 % 1006,8 hPa 5,6 l/m 6,4 km/h (2 Bft) NW 315 0 min 0,000 mm 0 W/m 16,8 C 19,2 C 19,3 km/h (3 Bft) 100 %
28.07.2014 21:30 19,1 C 19,1 C 19,2 C 86 % 1006,9 hPa 1,6 l/m 4,8 km/h (1 Bft) NW 315 0 min 0,000 mm 0 W/m 16,7 C 19,1 C 16,1 km/h (3 Bft) 100 %
28.07.2014 21:40 19,1 C 19,0 C 19,1 C 86 % 1007,0 hPa 0,0 l/m 1,6 km/h (1 Bft) N-NW 337 0 min 0,000 mm 0 W/m 16,7 C 19,1 C 14,5 km/h (3 Bft) 100 %
28.07.2014 21:50 19,1 C 19,0 C 19,1 C 86 % 1007,1 hPa 0,2 l/m 3,2 km/h (1 Bft) N-NW 337 0 min 0,000 mm 0 W/m 16,7 C 19,1 C 16,1 km/h (3 Bft) 100 %
28.07.2014 22:00 18,9 C 18,9 C 19,1 C 87 % 1007,3 hPa 0,0 l/m 1,6 km/h (1 Bft) N-NW 337 0 min 0,025 mm 0 W/m 16,7 C 18,9 C 8,0 km/h (2 Bft) 99 %
28.07.2014 22:10 18,9 C 18,9 C 18,9 C 87 % 1007,4 hPa 0,0 l/m 4,8 km/h (1 Bft) W-NW 292 0 min 0,000 mm 0 W/m 16,7 C 18,9 C 16,1 km/h (3 Bft) 100 %
28.07.2014 22:20 18,8 C 18,8 C 18,9 C 87 % 1007,3 hPa 0,0 l/m 3,2 km/h (1 Bft) NW 315 0 min 0,000 mm 0 W/m 16,6 C 18,8 C 16,1 km/h (3 Bft) 100 %
28.07.2014 22:30 18,8 C 18,8 C 18,8 C 87 % 1007,6 hPa 0,0 l/m 0,0 km/h (0 Bft) W-SW 247 0 min 0,000 mm 0 W/m 16,6 C 18,8 C 8,0 km/h (2 Bft) 100 %
28.07.2014 22:40 18,9 C 18,8 C 18,9 C 87 % 1007,6 hPa 0,0 l/m 0,0 km/h (0 Bft) S-SW 202 0 min 0,000 mm 0 W/m 16,7 C 18,9 C 8,0 km/h (2 Bft) 100 %
28.07.2014 22:50 18,8 C 18,8 C 18,9 C 87 % 1007,9 hPa 0,0 l/m 0,0 km/h (0 Bft) NW 315 0 min 0,000 mm 0 W/m 16,6 C 18,8 C 1,6 km/h (1 Bft) 100 %
28.07.2014 23:00 18,8 C 18,8 C 18,8 C 87 % 1008,1 hPa 0,0 l/m 3,2 km/h (1 Bft) S-SO 157 0 min 0,025 mm 0 W/m 16,6 C 18,8 C 14,5 km/h (3 Bft) 100 %
28.07.2014 23:10 18,4 C 18,4 C 18,8 C 87 % 1007,8 hPa 0,0 l/m 9,7 km/h (2 Bft) S-SW 202 0 min 0,000 mm 0 W/m 16,2 C 17,0 C 20,9 km/h (4 Bft) 100 %
28.07.2014 23:20 18,2 C 18,2 C 18,4 C 87 % 1007,8 hPa 0,0 l/m 4,8 km/h (1 Bft) SW 225 0 min 0,000 mm 0 W/m 16,0 C 18,2 C 14,5 km/h (3 Bft) 100 %
28.07.2014 23:30 18,1 C 18,1 C 18,2 C 87 % 1007,6 hPa 0,0 l/m 4,8 km/h (1 Bft) W-SW 247 0 min 0,000 mm 0 W/m 15,9 C 18,1 C 17,7 km/h (3 Bft) 99 %
28.07.2014 23:40 17,9 C 17,9 C 18,1 C 87 % 1007,6 hPa 0,0 l/m 6,4 km/h (2 Bft) W 270 0 min 0,000 mm 0 W/m 15,7 C 17,9 C 17,7 km/h (3 Bft) 100 %
28.07.2014 23:50 17,8 C 17,8 C 17,9 C 87 % 1007,4 hPa 0,0 l/m 8,0 km/h (2 Bft) W 270 0 min 0,000 mm 0 W/m 15,6 C 17,0 C 17,7 km/h (3 Bft) 100 %
_ Min-Zeit 06:30 06:30 06:40 14:50 19:20 - 00:00 - - - - - 06:30 06:30 00:00 15:10
Minimum _ 15,8 C 15,8 C 15,8 C 51 % 1006,0 hPa - 0,0 km/h (0 Bft) - - - - - 13,6 C 15,8 C 0,0 km/h (0 Bft) 90 %
_ Max-Zeit 14:20 14:30 14:20 04:20 00:00 21:20 23:10 - - 16:20 12:00 12:50 13:00 14:20 18:20 13:30
Maximum _ 28,4 C 28,3 C 28,4 C 87 % 1013,4 hPa 5,6 l/m 9,7 km/h
S-SW (2 Bft)
- - 20 min 0,483 mm 1151 W/m 19,3 C 28,4 C 22,5 km/h
W-NW (4 Bft)
100 %
Durchschnitt _ 21,7 C 21,6 C 21,8 C 75 % 1009,5 hPa #21,4 l/m 1,0 km/h (0 Bft) NW - #9:20 h #3,200 mm 397 W/m 16,8 C 21,6 C 5,3 km/h (1 Bft) 98 %
PRIVATE WETTERSTATION BILLIGHEIM-ALLFELD - www.neckar-odenwald-wetter.de - Holger Sonntag